Weather in Bolshaya Rechka

Russia / Republic of Buryatia     51°58′11″N   106°19′34″E
temp.,
°C
wind,
m/s
gust,
m/s
humid.,
%
clouds,
%
prec.,
mm/h
press.,
hPa
HPBL,
m
8 may, sat
sat823:00+1s2277100 0.0 101621
02:000ese22756 0.0 101414
05:000e33745 0.0 101333
08:00+5ne2358100 0.0 1012236
11:00+4w6669100 0.1 1014629
14:00+6wsw566619 0.1 1014627
17:00+6wsw677019 0.0 1013503
20:00+4sw6108218 0.0 1013306
9 may, sun
sun923:00+3ssw489021 0.0 1014161
02:00+2s359011 0.0 101482
05:00+4ssw358798 0.4 1013106
08:00+7sw3480100 0.5 1013240
11:00+10wsw4664100 0.0 1010722
14:00+11w345585 0.0 1009606
17:00+12n2251100 0.0 1007566
20:00+5e0187100 0.2 101010
10 may, mon
mon1023:00+4w3592100 0.2 1011154
02:00+3sw4997100 3.9 1012250
05:00+3wsw4896100 0.6 1012217
08:00+4wsw4689100 0.8 1012277
11:00+5wsw678195 0.2 1013630
14:00+3wsw6886100 0.3 1015389
17:00+4wsw688397 0.1 1014551
20:00+3wsw599696 0.6 1015403
11 may, tue
tue1123:00+2wsw4898100 0.5 1015283
02:00+2wsw6109787 1.0 1015350
05:00+2w51098100 0.8 1014461
08:00+3wnw61294100 1.1 1016473
11:00+4wsw71185100 0.1 1016462
14:00+6wsw81177100 0.1 1016484
17:00+6wsw587299 0.1 1015316
20:00+5sw497689 0.1 1016214
12 may, wed
wed1223:00+2ssw358663 0.0 101681
02:00+2ssw34855 0.0 101659
05:00+1ssw22864 0.0 101523
08:00+6nne0165100 0.0 1013198
11:00+10n325429 0.0 1010848
14:00+11nnw4349100 0.0 1009996
17:00+11nne5547100 0.0 1008725
20:00+6ne346199 0.0 100964